Location: Chiroubles
(46.1812°N, 4.6660°E)
Time: 16:16:54
(UTC+00:00)

Tiros 1 - Visible Passes

Search period start: 26 November 2020 00:00
Search period end: 06 December 2020 00:00
Orbit: 630 x 664 km, 48.4° (Epoch: 25 November)

Date Brightness Start Highest point End Pass type
(mag) Time Alt. Az. Time Alt. Az. Time Alt. Az.
26 Nov 7.2 17:17:51 10° WSW 17:22:40 87° NNW 17:25:37 23° ENE visible
26 Nov 8.6 19:00:21 10° W 19:03:17 36° WNW 19:03:17 36° WNW visible
27 Nov 7.2 17:43:59 10° W 17:48:47 70° N 17:50:29 39° ENE visible
27 Nov 9.5 19:26:28 10° WNW 19:28:08 22° WNW 19:28:08 22° WNW visible
28 Nov 7.2 16:27:41 10° WSW 16:32:31 89° NNW 16:37:19 10° ENE visible
28 Nov 7.1 18:10:10 10° W 18:14:57 67° N 18:15:21 63° NE visible
28 Nov 10.2 19:52:31 10° WNW 19:53:00 13° WNW 19:53:00 13° WNW visible
29 Nov 7.3 16:53:48 10° W 16:58:37 71° N 17:02:35 15° ENE visible
29 Nov 7.6 18:36:17 10° WNW 18:40:14 58° NW 18:40:14 58° NW visible
30 Nov 7.3 17:19:58 10° W 17:24:46 66° N 17:27:30 25° ENE visible
30 Nov 8.6 19:02:21 10° WNW 19:05:10 35° WNW 19:05:10 35° WNW visible
01 Dec 7.1 17:46:06 10° WNW 17:50:55 75° N 17:52:29 42° E visible
01 Dec 9.5 19:28:27 10° WNW 19:30:08 21° W 19:30:08 21° W visible
02 Dec 7.3 16:29:48 10° W 16:34:36 66° N 16:39:22 10° E visible
02 Dec 7.1 18:12:10 10° WNW 18:17:00 81° SSW 18:17:31 69° SE visible
02 Dec 10.2 19:54:49 10° W 19:55:12 12° W 19:55:12 12° W visible
03 Dec 7.2 16:55:55 10° WNW 17:00:45 74° N 17:04:59 13° E visible
03 Dec 7.8 18:38:16 10° WNW 18:42:40 50° SW 18:42:40 50° SW visible
04 Dec 7.2 17:22:00 10° WNW 17:26:50 85° SSW 17:30:15 19° ESE visible
04 Dec 9.0 19:04:34 10° W 19:07:56 27° SW 19:07:56 27° SW visible
05 Dec 7.8 17:48:05 10° WNW 17:52:46 54° SSW 17:55:41 22° SE visible
05 Dec 9.9 19:31:40 10° WSW 19:33:24 14° WSW 19:33:24 14° WSW visible
